Погода в Сомониёне

Таджикистан     38°26′19″N   68°46′17″E
темп.,
°C
ветер,
м/с
пор.,
м/с
влажн.,
%
обл.,
%
осадки,
мм/ч
давл.,
гПа
погр.,
м
15 апреля, чт
чт1523:00+12св1166100 0.7 101514
02:00+12всв1165100 0.3 101512
05:00+11св1163100 0.3 101411
08:00+15в1156100 0.0 1016123
11:00+20ююв1245100 0.0 10161028
14:00+20ю2247100 0.1 10141426
17:00+17в3369100 1.1 1015262
20:00+13в227993 0.4 101715
16 апреля, пт
пт1623:00+11всв11765 0.4 101711
02:00+10ссв11740 0.0 101611
05:00+9всв01715 0.0 101612
08:00+14в115910 0.0 1017131
11:00+20зюз11385 0.0 10161079
14:00+22с1231100 0.0 10142035
17:00+22ссв12330 0.0 10131305
20:00+15всв11475 0.0 101512
17 апреля, сб
сб1723:00+13всв115485 0.0 101511
02:00+12вюв01584 0.0 101411
05:00+11св11595 0.0 101511
08:00+15всв11525 0.0 1016128
11:00+21зюз12385 0.0 1015850
14:00+23зсз133161 0.0 10132631
17:00+20ююв344982 0.0 1013536
20:00+15в3565100 0.1 1015103
18 апреля, вс
вс1823:00+13всв116975 0.4 101613
02:00+12с0072100 0.3 101612
05:00+12в2278100 1.1 101837
08:00+13вюв2375100 1.3 1021147
11:00+15всв446378 2.8 1022835
14:00+18в335219 0.9 10211496
17:00+17ссв445442 1.3 1019903
20:00+12всв3369100 0.1 102044
19 апреля, пн
пн1923:00+12всв2262100 0.1 102022
02:00+10св226391 0.0 101914
05:00+9всв116343 0.0 101812
08:00+14всв1253100 0.0 1017164
11:00+20вюв123980 0.0 10151039
14:00+22юв1131100 0.0 10122031
17:00+21юв12327 0.0 10101792
20:00+16св1143100 0.0 101112